This is the latest recevied weather packets stored in our database for station/object WIII. If no packets are shown the sender has not sent any weather packets the latest 10 day(s).
| Time | Temp. | Humidity | Pressure | Rain* | Wind** | Luminosity | Snow |
|---|---|---|---|---|---|---|---|
| 1787909030 | 30.56° C | 52% | 1010 hPa | - | - | - | - |
| 1787908427 | 30.56° C | 52% | 1010 hPa | - | - | - | - |
| 1787907828 | 31.67° C | 43% | 1010 hPa | - | - | - | - |
| 1787907227 | 31.67° C | 43% | 1010 hPa | - | - | - | - |
| 1787906628 | 31.67° C | 43% | 1010 hPa | - | - | - | - |
| 1787906027 | 31.67° C | 43% | 998 hPa | - | - | - | - |
| 1787905427 | 31.67° C | 43% | 999 hPa | - | - | - | - |
| 1787904823 | 31.67° C | 43% | 999 hPa | - | - | - | - |
| 1787904227 | 31.67° C | 43% | 1010 hPa | - | - | - | - |
| 1787903625 | 31.67° C | 43% | 1010 hPa | - | - | - | - |
| 1787903025 | 32.78° C | 46% | 1011 hPa | - | - | - | - |
| 1787902434 | 32.78° C | 46% | 1011 hPa | - | - | - | - |
| 1787901830 | 32.78° C | 46% | 1011 hPa | - | - | - | - |
| 1787901229 | 32.78° C | 46% | 1011 hPa | - | - | - | - |
| 1787900629 | 31.67° C | 55% | 1011 hPa | - | - | - | - |
| 1787900029 | 31.67° C | 55% | 1011 hPa | - | - | - | - |
| 1787899432 | 31.67° C | 55% | 1011 hPa | - | - | - | - |
| 1787898827 | 31.67° C | 59% | 1000 hPa | - | - | - | - |
| 1787898225 | 31.67° C | 59% | 1000 hPa | - | - | - | - |
| 1787897629 | 31.67° C | 59% | 1000 hPa | - | - | - | - |
| 1787897029 | 32.78° C | 52% | 1000 hPa | - | - | - | - |
| 1787896425 | 32.78° C | 52% | 1014 hPa | - | - | - | - |
| 1787895825 | 32.78° C | 52% | 1014 hPa | - | - | - | - |
| 1787895228 | 32.78° C | 52% | 1014 hPa | - | - | - | - |
| 1787894629 | 32.78° C | 52% | 1001 hPa | - | - | - | - |
* Rain since midnight (hover to see other rain measurements)
** Current wind speed in m/s (hover to see current wind gust speed)